QPF
0.03 0.05 0.04 0.02 0.02 0.03 0.02 0.03 0.02 0.03 0.03 0.04 0.03 0.01 0.01 0.01 0.01 0.01 0.01 0.01 0.01 0.02 0.02 0.02 0.02 0.02 0.01 0.01 0.02 0.02 0.02 0.02 0.02 0.02 0.03 0.03 0.03 0.02 0.02 0.02 0.02 0.01 0.02 0.05
0.03 0.04 0.02 0.01 0.02 0.03 0.04 0.04 0.03 0.03 0.03 0.03 0.03 0.03 0.02 0.01 0.01 0.01 0.01 0.01 0.01 0.02 0.02 0.02 0.02 0.02 0.01 0.01 0.01 0.01 0.02 0.02 0.02 0.02 0.02 0.02 0.03 0.02 0.02 0.01 0.01 0.01 0.01 0.03
0.03 0.02 0.01 0.02 0.03 0.03 0.04 0.04 0.04 0.04 0.04 0.04 0.04 0.05 0.04 0.03 0.01 0.01 0.01 0.01 0.01 0.02 0.02 0.01 0.01 0.01 0.01 0.01 0.01 0.01 0.01 0.02 0.02 0.02 0.01 0.01 0.02 0.01 0.01 0.01 0.01 0.00 0.01 0.01
0.02 0.01 0.01 0.03 0.04 0.04 0.04 0.03 0.04 0.04 0.04 0.05 0.05 0.07 0.07 0.05 0.02 0.02 0.02 0.01 0.02 0.02 0.02 0.01 0.01 0.01 0.01 0.01 0.01 0.01 0.02 0.02 0.01 0.01 0.01 0.01 0.01 0.01 0.01 0.01 0.00 0.00 0.01 0.01
0.03 0.02 0.02 0.03 0.03 0.02 0.03 0.03 0.03 0.04 0.05 0.04 0.05 0.06 0.08 0.07 0.04 0.03 0.02 0.02 0.02 0.03 0.02 0.02 0.01 0.01 0.01 0.01 0.01 0.02 0.02 0.02 0.01 0.01 0.01 0.01 0.01 0.01 0.01 0.01 0.00 0.00 0.01 0.01
0.02 0.02 0.02 0.02 0.01 0.01 0.02 0.03 0.04 0.04 0.07 0.08 0.05 0.05 0.07 0.09 0.08 0.04 0.02 0.02 0.02 0.03 0.03 0.02 0.02 0.01 0.01 0.01 0.02 0.02 0.03 0.03 0.02 0.01 0.01 0.01 0.01 0.01 0.01 0.01 0.01 0.00 0.00 0.01
0.02 0.01 0.01 0.02 0.02 0.02 0.03 0.04 0.06 0.07 0.09 0.08 0.04 0.04 0.07 0.09 0.09 0.07 0.04 0.03 0.02 0.03 0.04 0.03 0.02 0.01 0.01 0.02 0.02 0.03 0.03 0.03 0.03 0.02 0.01 0.01 0.01 0.01 0.00 0.00 0.00 0.00 0.00 0.00
0.02 0.02 0.02 0.02 0.04 0.03 0.02 0.03 0.05 0.05 0.04 0.04 0.03 0.04 0.07 0.08 0.07 0.04 0.03 0.02 0.02 0.02 0.03 0.04 0.03 0.02 0.02 0.02 0.02 0.02 0.03 0.03 0.03 0.02 0.02 0.01 0.01 0.01 0.01 0.00 0.00 0.00 0.00 0.01
0.03 0.02 0.02 0.02 0.03 0.02 0.02 0.03 0.03 0.04 0.03 0.03 0.05 0.05 0.05 0.04 0.04 0.03 0.02 0.01 0.02 0.02 0.03 0.03 0.03 0.03 0.03 0.03 0.03 0.03 0.02 0.02 0.03 0.03 0.02 0.01 0.01 0.01 0.01 0.01 0.01 0.01 0.01 0.00
0.03 0.02 0.01 0.01 0.01 0.02 0.02 0.02 0.03 0.05 0.04 0.04 0.04 0.04 0.05 0.04 0.04 0.03 0.03 0.02 0.02 0.02 0.03 0.03 0.03 0.03 0.03 0.03 0.04 0.04 0.03 0.03 0.03 0.03 0.03 0.02 0.01 0.01 0.01 0.01 0.01 0.01 0.01 0.01
0.02 0.02 0.01 0.01 0.02 0.03 0.03 0.04 0.03 0.03 0.03 0.03 0.03 0.04 0.05 0.04 0.04 0.04 0.04 0.03 0.03 0.02 0.02 0.02 0.02 0.03 0.02 0.02 0.03 0.04 0.03 0.02 0.03 0.03 0.02 0.02 0.01 0.01 0.00 0.00 0.00 0.01 0.01 0.01
0.01 0.01 0.01 0.01 0.01 0.01 0.02 0.04 0.04 0.04 0.03 0.03 0.02 0.03 0.04 0.04 0.04 0.04 0.04 0.04 0.04 0.03 0.02 0.02 0.02 0.02 0.01 0.01 0.01 0.02 0.02 0.02 0.02 0.02 0.02 0.02 0.02 0.02 0.01 0.01 0.01 0.01 0.01 0.01
0.03 0.02 0.02 0.02 0.02 0.02 0.02 0.03 0.04 0.02 0.02 0.03 0.02 0.03 0.03 0.03 0.03 0.04 0.04 0.04 0.04 0.03 0.02 0.02 0.02 0.01 0.01 0.01 0.01 0.01 0.01 0.02 0.02 0.02 0.02 0.02 0.02 0.01 0.01 0.01 0.01 0.01 0.01 0.02
0.03 0.02 0.01 0.02 0.03 0.02 0.02 0.02 0.03 0.03 0.03 0.02 0.03 0.03 0.03 0.02 0.03 0.04 0.05 0.05 0.04 0.03 0.03 0.02 0.02 0.02 0.02 0.01 0.01 0.01 0.01 0.01 0.01 0.01 0.02 0.02 0.02 0.01 0.01 0.01 0.01 0.00 0.00 0.01
0.01 0.02 0.01 0.01 0.01 0.01 0.01 0.01 0.02 0.03 0.02 0.02 0.02 0.02 0.03 0.04 0.04 0.04 0.05 0.05 0.05 0.05 0.04 0.03 0.03 0.03 0.02 0.01 0.01 0.01 0.01 0.01 0.01 0.01 0.01 0.01 0.01 0.01 0.01 0.01 0.00 0.00 0.00 0.00
0.01 0.01 0.01 0.01 0.00 0.00 0.00 0.01 0.01 0.02 0.02 0.02 0.02 0.02 0.04 0.04 0.03 0.03 0.03 0.03 0.04 0.06 0.07 0.06 0.05 0.05 0.04 0.02 0.01 0.01 0.01 0.01 0.01 0.01 0.01 0.01 0.01 0.01 0.01 0.01 0.01 0.00 0.01 0.01
0.01 0.01 0.01 0.01 0.00 0.00 0.01 0.02 0.02 0.02 0.03 0.02 0.03 0.03 0.04 0.03 0.03 0.03 0.03 0.03 0.03 0.04 0.05 0.05 0.05 0.06 0.05 0.03 0.02 0.01 0.01 0.01 0.01 0.01 0.01 0.01 0.01 0.01 0.01 0.01 0.01 0.01 0.01 0.01
0.01 0.01 0.01 0.01 0.01 0.01 0.02 0.01 0.02 0.02 0.03 0.02 0.03 0.03 0.03 0.04 0.03 0.03 0.03 0.03 0.03 0.03 0.03 0.03 0.03 0.03 0.03 0.03 0.02 0.02 0.01 0.01 0.01 0.01 0.01 0.01 0.01 0.01 0.01 0.01 0.01 0.01 0.01 0.01
0.01 0.01 0.02 0.02 0.01 0.01 0.01 0.01 0.02 0.02 0.02 0.02 0.03 0.03 0.02 0.03 0.03 0.02 0.02 0.02 0.03 0.03 0.03 0.03 0.02 0.02 0.02 0.02 0.02 0.02 0.01 0.01 0.01 0.01 0.01 0.02 0.02 0.02 0.01 0.01 0.01 0.01 0.01 0.01
0.01 0.01 0.02 0.01 0.01 0.01 0.01 0.01 0.01 0.01 0.01 0.01 0.01 0.02 0.02 0.02 0.03 0.04 0.02 0.02 0.02 0.02 0.02 0.02 0.02 0.01 0.02 0.02 0.02 0.02 0.02 0.02 0.02 0.02 0.01 0.02 0.02 0.02 0.02 0.02 0.01 0.01 0.01 0.01
0.01 0.01 0.01 0.01 0.01 0.01 0.01 0.00 0.00 0.01 0.01 0.01 0.01 0.01 0.02 0.02 0.03 0.03 0.03 0.02 0.02 0.02 0.01 0.01 0.01 0.01 0.02 0.02 0.02 0.02 0.02 0.02 0.02 0.02 0.02 0.02 0.02 0.03 0.02 0.02 0.02 0.01 0.01 0.01
0.01 0.01 0.01 0.01 0.01 0.01 0.01 0.00 0.01 0.01 0.01 0.01 0.01 0.01 0.01 0.02 0.02 0.02 0.02 0.02 0.02 0.01 0.01 0.01 0.01 0.01 0.01 0.01 0.02 0.02 0.02 0.02 0.03 0.02 0.02 0.02 0.02 0.02 0.03 0.03 0.02 0.02 0.02 0.01
0.01 0.01 0.01 0.01 0.01 0.01 0.01 0.01 0.01 0.01 0.01 0.01 0.01 0.01 0.01 0.01 0.02 0.02 0.02 0.02 0.02 0.02 0.02 0.01 0.01 0.01 0.01 0.01 0.01 0.01 0.02 0.03 0.03 0.02 0.02 0.03 0.02 0.03 0.03 0.03 0.02 0.02 0.02 0.02
0.02 0.01 0.01 0.01 0.01 0.01 0.01 0.01 0.01 0.01 0.01 0.01 0.01 0.02 0.02 0.02 0.02 0.02 0.03 0.03 0.02 0.02 0.02 0.01 0.01 0.01 0.01 0.01 0.01 0.01 0.01 0.02 0.03 0.03 0.03 0.03 0.03 0.03 0.03 0.03 0.03 0.02 0.02 0.03
0.02 0.01 0.01 0.01 0.01 0.01 0.01 0.01 0.01 0.01 0.01 0.01 0.01 0.02 0.02 0.02 0.02 0.03 0.03 0.03 0.03 0.03 0.02 0.01 0.01 0.01 0.01 0.01 0.01 0.01 0.02 0.02 0.02 0.02 0.02 0.02 0.02 0.03 0.03 0.03 0.04 0.04 0.03 0.03
0.02 0.02 0.02 0.01 0.01 0.01 0.01 0.01 0.01 0.01 0.01 0.01 0.01 0.01 0.02 0.02 0.03 0.03 0.03 0.03 0.04 0.03 0.03 0.02 0.02 0.02 0.02 0.02 0.02 0.02 0.02 0.03 0.03 0.02 0.02 0.02 0.02 0.02 0.03 0.03 0.04 0.05 0.05 0.05
MSLP
1018.88 1018.54 1018.31 1018.10 1017.85 1017.47 1016.92 1016.18 1015.26 1014.20 1013.07 1011.93 1010.83 1009.84 1008.97 1008.24 1007.65 1007.20 1006.89 1006.71 1006.67 1006.78 1007.04 1007.44 1007.95 1008.54 1009.17 1009.81 1010.42 1010.99 1011.53 1012.03 1012.54 1013.07 1013.63 1014.24 1014.90 1015.57 1016.26 1016.93 1017.57 1018.18 1018.75 1019.31
1019.54 1019.32 1019.14 1018.94 1018.63 1018.14 1017.43 1016.51 1015.40 1014.19 1012.94 1011.73 1010.63 1009.67 1008.87 1008.22 1007.69 1007.27 1006.94 1006.69 1006.56 1006.55 1006.68 1006.97 1007.41 1007.99 1008.65 1009.36 1010.08 1010.76 1011.38 1011.95 1012.48 1012.99 1013.50 1014.03 1014.61 1015.23 1015.88 1016.55 1017.23 1017.89 1018.54 1019.15
1020.39 1020.24 1020.09 1019.85 1019.43 1018.78 1017.88 1016.75 1015.46 1014.11 1012.79 1011.58 1010.54 1009.69 1009.03 1008.52 1008.10 1007.74 1007.40 1007.08 1006.81 1006.62 1006.56 1006.67 1006.97 1007.46 1008.10 1008.84 1009.63 1010.41 1011.13 1011.77 1012.34 1012.84 1013.31 1013.78 1014.29 1014.84 1015.46 1016.12 1016.81 1017.52 1018.21 1018.89
1021.32 1021.21 1021.04 1020.71 1020.16 1019.33 1018.23 1016.91 1015.47 1014.03 1012.69 1011.55 1010.65 1009.99 1009.54 1009.22 1008.96 1008.68 1008.35 1007.94 1007.51 1007.10 1006.79 1006.66 1006.74 1007.07 1007.61 1008.32 1009.13 1009.97 1010.77 1011.48 1012.10 1012.61 1013.07 1013.49 1013.94 1014.44 1015.01 1015.65 1016.35 1017.08 1017.82 1018.54
1022.24 1022.12 1021.89 1021.46 1020.76 1019.75 1018.48 1017.02 1015.48 1014.02 1012.74 1011.72 1011.02 1010.61 1010.41 1010.34 1010.26 1010.09 1009.76 1009.27 1008.66 1008.01 1007.41 1006.98 1006.79 1006.88 1007.26 1007.86 1008.64 1009.49 1010.33 1011.10 1011.75 1012.30 1012.76 1013.17 1013.58 1014.03 1014.57 1015.18 1015.88 1016.62 1017.39 1018.14
1023.08 1022.92 1022.61 1022.07 1021.22 1020.08 1018.68 1017.13 1015.57 1014.15 1012.98 1012.16 1011.69 1011.55 1011.62 1011.79 1011.90 1011.84 1011.53 1010.97 1010.18 1009.28 1008.39 1007.64 1007.13 1006.94 1007.08 1007.52 1008.19 1009.00 1009.84 1010.63 1011.33 1011.91 1012.38 1012.80 1013.20 1013.64 1014.16 1014.76 1015.44 1016.18 1016.96 1017.73
1023.84 1023.61 1023.21 1022.56 1021.61 1020.38 1018.92 1017.36 1015.84 1014.51 1013.50 1012.88 1012.66 1012.77 1013.10 1013.48 1013.76 1013.79 1013.49 1012.85 1011.92 1010.79 1009.61 1008.55 1007.72 1007.23 1007.10 1007.32 1007.83 1008.53 1009.32 1010.11 1010.83 1011.44 1011.96 1012.41 1012.84 1013.29 1013.80 1014.39 1015.07 1015.81 1016.58 1017.35
1024.54 1024.23 1023.75 1023.02 1022.02 1020.75 1019.31 1017.80 1016.38 1015.19 1014.35 1013.93 1013.91 1014.22 1014.73 1015.27 1015.65 1015.74 1015.44 1014.73 1013.67 1012.36 1010.94 1009.60 1008.48 1007.69 1007.29 1007.27 1007.58 1008.13 1008.83 1009.57 1010.29 1010.94 1011.51 1012.01 1012.49 1012.98 1013.52 1014.12 1014.79 1015.51 1016.27 1017.02
1025.24 1024.85 1024.30 1023.54 1022.53 1021.30 1019.93 1018.54 1017.26 1016.23 1015.56 1015.28 1015.40 1015.83 1016.42 1017.02 1017.43 1017.53 1017.20 1016.44 1015.28 1013.83 1012.25 1010.70 1009.34 1008.30 1007.63 1007.36 1007.45 1007.83 1008.40 1009.07 1009.77 1010.43 1011.05 1011.63 1012.17 1012.72 1013.30 1013.93 1014.60 1015.30 1016.03 1016.76
1025.97 1025.52 1024.94 1024.18 1023.22 1022.10 1020.86 1019.63 1018.52 1017.65 1017.10 1016.92 1017.09 1017.53 1018.10 1018.65 1019.01 1019.04 1018.67 1017.85 1016.63 1015.11 1013.43 1011.76 1010.24 1009.00 1008.12 1007.62 1007.49 1007.67 1008.09 1008.66 1009.31 1009.98 1010.64 1011.28 1011.90 1012.52 1013.16 1013.81 1014.49 1015.18 1015.87 1016.56
1026.74 1026.26 1025.69 1024.98 1024.13 1023.15 1022.10 1021.06 1020.13 1019.40 1018.94 1018.79 1018.92 1019.26 1019.71 1020.11 1020.33 1020.25 1019.79 1018.93 1017.69 1016.17 1014.47 1012.76 1011.16 1009.80 1008.76 1008.07 1007.73 1007.72 1007.97 1008.41 1008.98 1009.62 1010.30 1010.99 1011.69 1012.38 1013.07 1013.76 1014.45 1015.12 1015.78 1016.42
1027.53 1027.05 1026.52 1025.91 1025.21 1024.42 1023.58 1022.74 1021.99 1021.38 1020.98 1020.80 1020.82 1021.00 1021.24 1021.42 1021.45 1021.21 1020.66 1019.75 1018.53 1017.05 1015.41 1013.73 1012.14 1010.73 1009.58 1008.74 1008.22 1008.00 1008.07 1008.36 1008.82 1009.41 1010.07 1010.79 1011.53 1012.29 1013.03 1013.75 1014.45 1015.11 1015.73 1016.32
1028.30 1027.85 1027.39 1026.91 1026.37 1025.78 1025.16 1024.54 1023.96 1023.47 1023.09 1022.85 1022.73 1022.70 1022.69 1022.63 1022.43 1022.02 1021.36 1020.44 1019.25 1017.86 1016.32 1014.74 1013.21 1011.80 1010.59 1009.64 1008.96 1008.56 1008.44 1008.55 1008.88 1009.37 1009.98 1010.69 1011.45 1012.24 1013.01 1013.76 1014.46 1015.11 1015.70 1016.25
1029.01 1028.61 1028.24 1027.88 1027.52 1027.14 1026.73 1026.31 1025.90 1025.51 1025.16 1024.85 1024.59 1024.34 1024.09 1023.78 1023.36 1022.79 1022.05 1021.11 1019.98 1018.70 1017.30 1015.85 1014.41 1013.05 1011.82 1010.78 1009.96 1009.38 1009.07 1008.99 1009.15 1009.51 1010.04 1010.69 1011.44 1012.22 1013.01 1013.76 1014.46 1015.10 1015.68 1016.21
1029.63 1029.29 1029.01 1028.78 1028.57 1028.38 1028.17 1027.94 1027.68 1027.39 1027.07 1026.72 1026.34 1025.92 1025.45 1024.93 1024.32 1023.62 1022.81 1021.87 1020.82 1019.66 1018.41 1017.10 1015.77 1014.47 1013.25 1012.14 1011.20 1010.45 1009.94 1009.67 1009.64 1009.84 1010.24 1010.80 1011.48 1012.23 1013.00 1013.75 1014.44 1015.08 1015.65 1016.16
1030.17 1029.89 1029.69 1029.56 1029.49 1029.45 1029.41 1029.34 1029.22 1029.03 1028.76 1028.39 1027.93 1027.39 1026.78 1026.10 1025.36 1024.56 1023.71 1022.80 1021.82 1020.77 1019.66 1018.49 1017.27 1016.04 1014.82 1013.67 1012.61 1011.72 1011.02 1010.55 1010.32 1010.33 1010.57 1011.01 1011.59 1012.26 1012.98 1013.70 1014.38 1015.01 1015.57 1016.09
1030.68 1030.45 1030.30 1030.24 1030.26 1030.33 1030.42 1030.49 1030.49 1030.40 1030.18 1029.83 1029.35 1028.75 1028.06 1027.29 1026.47 1025.62 1024.76 1023.87 1022.97 1022.02 1021.03 1019.97 1018.85 1017.68 1016.48 1015.29 1014.15 1013.12 1012.25 1011.59 1011.16 1010.98 1011.04 1011.31 1011.76 1012.33 1012.97 1013.63 1014.28 1014.89 1015.46 1015.98
1031.19 1030.98 1030.86 1030.84 1030.92 1031.06 1031.23 1031.39 1031.49 1031.48 1031.33 1031.03 1030.57 1029.97 1029.25 1028.45 1027.61 1026.75 1025.90 1025.05 1024.21 1023.35 1022.45 1021.48 1020.45 1019.33 1018.15 1016.93 1015.73 1014.59 1013.59 1012.75 1012.14 1011.77 1011.64 1011.73 1012.02 1012.45 1012.98 1013.56 1014.16 1014.74 1015.29 1015.82
1031.71 1031.52 1031.41 1031.40 1031.49 1031.66 1031.87 1032.09 1032.25 1032.31 1032.23 1031.99 1031.57 1031.01 1030.32 1029.54 1028.71 1027.87 1027.04 1026.24 1025.45 1024.65 1023.83 1022.94 1021.97 1020.91 1019.76 1018.55 1017.31 1016.10 1014.99 1014.02 1013.25 1012.70 1012.38 1012.28 1012.39 1012.66 1013.06 1013.54 1014.05 1014.58 1015.11 1015.62
1032.24 1032.04 1031.93 1031.91 1032.00 1032.17 1032.39 1032.63 1032.83 1032.94 1032.91 1032.73 1032.38 1031.87 1031.23 1030.49 1029.71 1028.90 1028.11 1027.35 1026.61 1025.87 1025.10 1024.28 1023.38 1022.37 1021.27 1020.09 1018.85 1017.62 1016.44 1015.38 1014.48 1013.77 1013.28 1013.00 1012.92 1013.02 1013.26 1013.60 1014.01 1014.46 1014.94 1015.43
1032.71 1032.52 1032.40 1032.37 1032.43 1032.59 1032.81 1033.05 1033.26 1033.40 1033.41 1033.28 1032.98 1032.54 1031.96 1031.28 1030.54 1029.79 1029.04 1028.32 1027.62 1026.93 1026.22 1025.46 1024.63 1023.70 1022.66 1021.54 1020.35 1019.13 1017.94 1016.82 1015.83 1015.00 1014.35 1013.90 1013.64 1013.56 1013.63 1013.82 1014.10 1014.46 1014.86 1015.30
1033.06 1032.87 1032.76 1032.72 1032.78 1032.92 1033.13 1033.36 1033.57 1033.71 1033.75 1033.65 1033.41 1033.02 1032.50 1031.88 1031.20 1030.50 1029.81 1029.13 1028.47 1027.83 1027.18 1026.48 1025.73 1024.88 1023.94 1022.90 1021.78 1020.62 1019.45 1018.33 1017.29 1016.37 1015.60 1015.00 1014.57 1014.31 1014.21 1014.24 1014.39 1014.63 1014.94 1015.30
1033.21 1033.06 1032.96 1032.94 1033.00 1033.14 1033.34 1033.56 1033.77 1033.91 1033.96 1033.89 1033.68 1033.34 1032.88 1032.32 1031.71 1031.06 1030.41 1029.79 1029.18 1028.59 1027.99 1027.37 1026.70 1025.95 1025.11 1024.17 1023.16 1022.08 1020.98 1019.88 1018.83 1017.86 1017.01 1016.29 1015.72 1015.30 1015.03 1014.91 1014.91 1015.02 1015.23 1015.51
1033.16 1033.04 1032.98 1033.00 1033.09 1033.24 1033.45 1033.67 1033.87 1034.02 1034.08 1034.02 1033.85 1033.55 1033.14 1032.64 1032.09 1031.50 1030.91 1030.34 1029.79 1029.25 1028.71 1028.16 1027.57 1026.92 1026.19 1025.37 1024.47 1023.49 1022.47 1021.43 1020.41 1019.43 1018.52 1017.72 1017.04 1016.49 1016.09 1015.82 1015.69 1015.68 1015.77 1015.95
1032.92 1032.85 1032.86 1032.92 1033.06 1033.25 1033.48 1033.71 1033.92 1034.07 1034.13 1034.10 1033.96 1033.70 1033.34 1032.90 1032.41 1031.89 1031.36 1030.85 1030.35 1029.86 1029.39 1028.90 1028.38 1027.82 1027.18 1026.47 1025.68 1024.82 1023.89 1022.93 1021.95 1020.99 1020.07 1019.23 1018.48 1017.84 1017.33 1016.96 1016.71 1016.58 1016.57 1016.66
1032.57 1032.58 1032.64 1032.78 1032.97 1033.21 1033.46 1033.71 1033.93 1034.10 1034.18 1034.17 1034.05 1033.84 1033.54 1033.17 1032.74 1032.29 1031.82 1031.36 1030.91 1030.48 1030.05 1029.61 1029.15 1028.65 1028.09 1027.47 1026.77 1026.01 1025.18 1024.30 1023.39 1022.48 1021.58 1020.74 1019.96 1019.28 1018.71 1018.25 1017.91 1017.70 1017.59 1017.58
Thickness
5481 5483 5485 5489 5492 5497 5501 5502 5504 5506 5504 5503 5507 5510 5513 5516 5521 5526 5531 5536 5542 5548 5551 5554 5557 5561 5565 5569 5573 5577 5580 5582 5585 5589 5591 5593 5595 5597 5598 5600 5602 5604 5605 5607
5473 5473 5476 5478 5480 5482 5487 5490 5493 5491 5492 5493 5497 5498 5500 5503 5507 5513 5518 5523 5527 5533 5538 5541 5545 5549 5553 5557 5560 5565 5568 5571 5575 5578 5581 5583 5585 5586 5589 5591 5592 5594 5596 5598
5460 5462 5464 5466 5468 5473 5478 5482 5484 5480 5479 5482 5486 5489 5488 5493 5497 5501 5505 5510 5515 5520 5525 5529 5532 5535 5540 5544 5548 5552 5557 5560 5563 5566 5569 5572 5573 5576 5578 5581 5583 5585 5587 5589
5450 5451 5453 5455 5457 5461 5468 5471 5471 5470 5472 5479 5482 5485 5482 5483 5486 5489 5493 5498 5502 5506 5512 5515 5518 5523 5526 5530 5535 5540 5545 5548 5551 5555 5559 5563 5567 5569 5571 5572 5573 5575 5577 5579
5439 5440 5443 5446 5447 5451 5457 5458 5461 5464 5467 5468 5471 5473 5478 5473 5472 5477 5481 5486 5490 5494 5499 5502 5505 5509 5513 5517 5522 5527 5532 5536 5539 5543 5548 5552 5556 5559 5560 5561 5563 5565 5567 5569
5430 5431 5430 5433 5439 5444 5447 5449 5454 5456 5459 5456 5461 5465 5467 5460 5460 5464 5468 5473 5477 5480 5485 5488 5491 5495 5500 5505 5509 5514 5519 5523 5527 5531 5536 5540 5544 5547 5550 5552 5554 5556 5558 5559
5426 5427 5422 5423 5429 5435 5439 5444 5450 5451 5451 5455 5452 5452 5447 5441 5444 5448 5452 5459 5464 5467 5471 5475 5479 5483 5488 5492 5496 5502 5506 5510 5514 5519 5523 5527 5531 5535 5539 5542 5544 5547 5549 5550
5412 5419 5413 5412 5414 5417 5426 5432 5438 5443 5449 5451 5443 5442 5431 5426 5429 5433 5438 5445 5450 5454 5458 5462 5465 5470 5475 5479 5483 5489 5493 5497 5502 5506 5510 5514 5518 5522 5526 5530 5533 5536 5539 5541
5397 5403 5403 5403 5403 5409 5415 5420 5421 5425 5429 5431 5434 5423 5419 5418 5420 5422 5426 5431 5435 5440 5444 5447 5451 5456 5460 5465 5470 5475 5479 5484 5489 5493 5497 5501 5505 5509 5514 5517 5521 5524 5527 5529
5381 5386 5395 5396 5399 5399 5403 5407 5413 5416 5421 5427 5425 5420 5417 5406 5406 5409 5412 5416 5420 5426 5431 5434 5437 5441 5446 5451 5456 5461 5465 5470 5475 5480 5484 5488 5492 5496 5500 5504 5508 5512 5515 5518
5374 5376 5384 5387 5383 5384 5390 5392 5397 5405 5410 5418 5417 5410 5396 5396 5395 5396 5399 5402 5407 5411 5416 5420 5424 5428 5432 5437 5442 5447 5452 5457 5462 5467 5470 5474 5479 5483 5487 5492 5495 5499 5502 5506
5367 5371 5375 5377 5374 5372 5377 5379 5384 5392 5391 5399 5404 5393 5380 5383 5383 5383 5385 5389 5393 5398 5402 5406 5410 5414 5419 5424 5429 5433 5438 5443 5448 5453 5457 5461 5465 5469 5475 5479 5483 5486 5490 5494
5359 5360 5370 5376 5369 5362 5361 5362 5364 5370 5376 5383 5388 5382 5367 5369 5371 5371 5373 5376 5381 5385 5390 5394 5397 5401 5406 5410 5415 5419 5424 5429 5434 5439 5444 5449 5453 5457 5462 5467 5471 5475 5478 5482
5352 5349 5355 5359 5356 5350 5349 5351 5354 5358 5365 5369 5369 5367 5361 5359 5359 5361 5363 5365 5369 5374 5378 5382 5386 5390 5393 5397 5401 5406 5411 5416 5421 5426 5432 5436 5440 5445 5449 5454 5459 5463 5466 5470
5343 5343 5340 5342 5344 5343 5341 5340 5342 5342 5346 5352 5354 5350 5349 5348 5348 5349 5352 5355 5360 5364 5368 5371 5374 5377 5381 5385 5389 5394 5399 5404 5409 5414 5419 5424 5428 5433 5438 5442 5446 5451 5454 5458
5332 5334 5333 5335 5338 5338 5333 5331 5330 5329 5331 5333 5337 5337 5338 5337 5338 5340 5343 5346 5350 5354 5357 5360 5362 5365 5369 5373 5377 5382 5387 5392 5397 5403 5407 5411 5416 5421 5426 5430 5434 5438 5443 5446
5325 5324 5331 5340 5330 5332 5329 5319 5317 5317 5316 5320 5325 5326 5328 5327 5329 5330 5333 5336 5339 5342 5344 5347 5350 5354 5357 5361 5365 5370 5375 5380 5386 5391 5395 5400 5404 5409 5414 5418 5422 5426 5430 5434
5312 5318 5324 5330 5328 5320 5320 5310 5309 5311 5310 5310 5313 5317 5318 5317 5318 5320 5323 5325 5327 5329 5332 5335 5338 5342 5346 5350 5354 5359 5363 5369 5374 5379 5384 5388 5393 5398 5402 5406 5410 5414 5418 5422
5308 5311 5319 5321 5321 5319 5313 5304 5298 5299 5304 5302 5302 5305 5307 5308 5313 5318 5314 5314 5315 5318 5321 5324 5327 5330 5335 5339 5343 5347 5352 5358 5362 5367 5371 5376 5381 5386 5391 5395 5398 5402 5406 5410
5301 5302 5310 5310 5314 5312 5307 5295 5292 5294 5302 5296 5292 5293 5295 5298 5308 5311 5305 5304 5306 5309 5312 5314 5318 5321 5325 5328 5332 5336 5341 5346 5350 5354 5359 5364 5369 5374 5379 5383 5386 5390 5394 5398
5294 5296 5297 5302 5302 5303 5291 5285 5290 5295 5294 5284 5283 5284 5285 5287 5290 5292 5293 5295 5297 5300 5303 5305 5309 5312 5315 5318 5321 5325 5330 5334 5338 5342 5347 5353 5358 5363 5368 5372 5375 5379 5383 5387
5288 5293 5288 5293 5294 5292 5279 5279 5280 5280 5277 5275 5276 5275 5274 5276 5278 5281 5284 5286 5289 5291 5294 5297 5299 5302 5304 5307 5311 5315 5319 5323 5328 5332 5338 5343 5348 5352 5357 5361 5365 5368 5372 5376
5277 5277 5282 5280 5284 5277 5270 5269 5268 5266 5267 5268 5268 5267 5267 5268 5270 5272 5275 5277 5280 5282 5284 5287 5290 5293 5295 5298 5301 5305 5308 5313 5317 5323 5328 5333 5338 5342 5346 5350 5354 5358 5362 5365
5270 5261 5265 5266 5271 5267 5264 5262 5261 5259 5259 5259 5259 5260 5260 5261 5263 5265 5267 5269 5271 5273 5275 5278 5280 5283 5286 5289 5292 5295 5299 5303 5307 5313 5318 5323 5327 5332 5336 5339 5343 5348 5351 5354
5267 5259 5261 5262 5263 5261 5261 5257 5255 5254 5253 5253 5253 5253 5254 5255 5256 5257 5259 5261 5262 5265 5267 5269 5271 5274 5277 5280 5283 5286 5290 5294 5299 5303 5308 5312 5317 5321 5325 5328 5332 5336 5340 5342
5258 5255 5258 5265 5259 5254 5256 5253 5249 5247 5247 5247 5247 5248 5248 5248 5249 5251 5252 5254 5255 5257 5259 5261 5264 5266 5269 5272 5276 5279 5282 5285 5290 5294 5298 5303 5306 5310 5314 5318 5322 5325 5328 5332